Location: Chilton Park
(37.7711°N, 100.0276°W)
Time: 20:01:41
(UTC+00:00)

Cosmos 1428 Rocket - Pass Details

Date: 09 July 2022
Orbit: 947 x 989 km, 82.9° (Epoch: 08 August)

Event Time Altitude Azimuth Distance (km) Brightness Sun altitude
Rises 10:33:08 0° 138° (SE) 3,687 7.6 -9.6°
Reaches altitude 10° 10:36:40 10° 118° (ESE) 2,743 7.2 -9.0°
Maximum altitude 10:40:19 16° 82° (E) 2,318 7.5 -8.4°
Drops below altitude 10° 10:43:58 10° 46° (NE) 2,746 8.6 -7.9°
Sets 10:47:29 0° 26° (NNE) 3,693 8.8 -7.3°
